TimeCDT,TemperatureF,Dew PointF,Humidity,Sea Level PressureIn,VisibilityMPH,Wind Direction,Wind SpeedMPH,Gust SpeedMPH,PrecipitationIn,Events,Conditions,WindDirDegrees,DateUTC
12:14 AM,73.4,59.0,61,29.98,10.0,South,11.5,17.3,N/A,,Clear,170,2013-06-20 05:14:00
12:34 AM,73.4,60.8,65,29.98,10.0,SSE,15.0,19.6,N/A,,Clear,160,2013-06-20 05:34:00
12:54 AM,73.4,60.8,65,29.98,10.0,SSE,11.5,18.4,N/A,,Clear,160,2013-06-20 05:54:00
1:14 AM,71.6,60.8,69,29.99,10.0,South,9.2,-,N/A,,Clear,170,2013-06-20 06:14:00
1:34 AM,71.6,60.8,69,29.99,10.0,SSE,10.4,-,N/A,,Clear,160,2013-06-20 06:34:00
1:54 AM,71.6,60.8,69,29.99,10.0,SSE,9.2,16.1,N/A,,Clear,160,2013-06-20 06:54:00
2:13 AM,71.6,60.8,69,29.99,10.0,SSE,9.2,-,N/A,,Clear,160,2013-06-20 07:13:00
2:34 AM,69.8,60.8,73,29.98,10.0,SSE,12.7,-,N/A,,Clear,160,2013-06-20 07:34:00
2:54 AM,69.8,60.8,73,29.98,10.0,SSE,10.4,-,N/A,,Clear,160,2013-06-20 07:54:00
3:14 AM,69.8,60.8,73,29.98,10.0,SSE,9.2,-,N/A,,Clear,160,2013-06-20 08:14:00
3:34 AM,69.8,60.8,73,29.98,10.0,SSE,10.4,-,N/A,,Clear,160,2013-06-20 08:34:00
3:54 AM,69.8,60.8,73,29.98,10.0,SSE,9.2,-,N/A,,Clear,150,2013-06-20 08:54:00
4:14 AM,69.8,60.8,73,29.98,10.0,SSE,9.2,-,N/A,,Clear,150,2013-06-20 09:14:00
4:34 AM,68.0,60.8,78,29.98,10.0,SSE,9.2,-,N/A,,Clear,150,2013-06-20 09:34:00
4:54 AM,68.0,60.8,78,29.98,10.0,SSE,8.1,-,N/A,,Clear,150,2013-06-20 09:54:00
5:14 AM,68.0,60.8,78,29.98,10.0,SSE,9.2,-,N/A,,Clear,150,2013-06-20 10:14:00
5:34 AM,68.0,60.8,78,29.98,10.0,SSE,9.2,-,N/A,,Clear,150,2013-06-20 10:34:00
5:54 AM,68.0,60.8,78,29.97,10.0,SSE,11.5,-,N/A,,Clear,160,2013-06-20 10:54:00
6:14 AM,68.0,60.8,78,29.97,10.0,SSE,9.2,-,N/A,,Clear,150,2013-06-20 11:14:00
6:34 AM,68.0,60.8,78,29.98,10.0,SSE,9.2,-,N/A,,Clear,160,2013-06-20 11:34:00
6:54 AM,68.0,60.8,78,29.98,10.0,SSE,10.4,-,N/A,,Clear,160,2013-06-20 11:54:00
7:14 AM,69.8,60.8,73,29.98,10.0,SSE,10.4,16.1,N/A,,Clear,160,2013-06-20 12:14:00
7:34 AM,69.8,62.6,78,29.97,10.0,SSE,12.7,-,N/A,,Clear,160,2013-06-20 12:34:00
7:54 AM,71.6,62.6,73,29.98,10.0,South,12.7,16.1,N/A,,Clear,170,2013-06-20 12:54:00
8:14 AM,73.4,62.6,69,29.99,10.0,South,12.7,18.4,N/A,,Clear,170,2013-06-20 13:14:00
8:34 AM,73.4,62.6,69,30.00,10.0,SSE,10.4,18.4,N/A,,Clear,160,2013-06-20 13:34:00
8:54 AM,77.0,62.6,61,30.00,10.0,South,12.7,-,N/A,,Clear,180,2013-06-20 13:54:00
9:14 AM,77.0,62.6,61,30.00,10.0,South,11.5,-,N/A,,Clear,170,2013-06-20 14:14:00
9:34 AM,78.8,62.6,57,29.98,10.0,SSE,16.1,21.9,N/A,,Clear,160,2013-06-20 14:34:00
9:54 AM,80.6,62.6,54,29.99,10.0,South,12.7,18.4,N/A,,Clear,170,2013-06-20 14:54:00
10:14 AM,80.6,60.8,51,29.98,10.0,SSE,17.3,20.7,N/A,,Clear,160,2013-06-20 15:14:00
10:34 AM,80.6,62.6,54,29.97,10.0,South,13.8,20.7,N/A,,Clear,180,2013-06-20 15:34:00
10:54 AM,80.6,60.8,51,29.98,10.0,South,17.3,27.6,N/A,,Scattered Clouds,170,2013-06-20 15:54:00
11:12 AM,80.6,62.6,54,29.98,10.0,SSE,16.1,23.0,N/A,,Mostly Cloudy,160,2013-06-20 16:12:00
11:33 AM,82.4,62.6,51,29.98,10.0,South,15.0,21.9,N/A,,Mostly Cloudy,170,2013-06-20 16:33:00
11:54 AM,82.4,60.8,48,29.97,10.0,South,13.8,24.2,N/A,,Mostly Cloudy,170,2013-06-20 16:54:00
12:14 PM,82.4,60.8,48,29.96,10.0,South,13.8,21.9,N/A,,Mostly Cloudy,170,2013-06-20 17:14:00
12:33 PM,84.2,60.8,45,29.95,10.0,South,18.4,24.2,N/A,,Mostly Cloudy,170,2013-06-20 17:33:00
12:54 PM,86.0,60.8,43,29.95,10.0,South,18.4,25.3,N/A,,Mostly Cloudy,170,2013-06-20 17:54:00
1:14 PM,86.0,60.8,43,29.95,10.0,South,21.9,29.9,N/A,,Scattered Clouds,180,2013-06-20 18:14:00
1:33 PM,86.0,60.8,43,29.94,10.0,SSE,19.6,25.3,N/A,,Scattered Clouds,160,2013-06-20 18:33:00
1:54 PM,86.0,60.8,43,29.94,10.0,SSE,19.6,27.6,N/A,,Scattered Clouds,160,2013-06-20 18:54:00
2:14 PM,87.8,60.8,40,29.92,10.0,SSE,19.6,28.8,N/A,,Scattered Clouds,160,2013-06-20 19:14:00
2:34 PM,87.8,59.0,38,29.92,10.0,South,19.6,26.5,N/A,,Scattered Clouds,180,2013-06-20 19:34:00
2:54 PM,89.6,60.8,38,29.91,10.0,SSE,20.7,29.9,N/A,,Scattered Clouds,160,2013-06-20 19:54:00
3:14 PM,89.6,60.8,38,29.91,10.0,SSE,20.7,29.9,N/A,,Scattered Clouds,150,2013-06-20 20:14:00
3:34 PM,87.8,60.8,40,29.90,10.0,South,19.6,32.2,N/A,,Scattered Clouds,170,2013-06-20 20:34:00
3:54 PM,89.6,60.8,38,29.90,10.0,South,20.7,28.8,N/A,,Scattered Clouds,170,2013-06-20 20:54:00
4:13 PM,89.6,60.8,38,29.90,10.0,SSE,17.3,25.3,N/A,,Mostly Cloudy,160,2013-06-20 21:13:00
4:34 PM,89.6,59.0,36,29.90,10.0,South,19.6,32.2,N/A,,Mostly Cloudy,180,2013-06-20 21:34:00
4:54 PM,87.8,60.8,40,29.90,10.0,SSE,16.1,24.2,N/A,,Mostly Cloudy,160,2013-06-20 21:54:00
5:13 PM,89.6,60.8,38,29.89,10.0,South,18.4,26.5,N/A,,Overcast,170,2013-06-20 22:13:00
5:34 PM,87.8,60.8,40,29.89,10.0,South,19.6,25.3,N/A,,Overcast,180,2013-06-20 22:34:00
5:54 PM,87.8,60.8,40,29.88,10.0,South,11.5,23.0,N/A,,Overcast,170,2013-06-20 22:54:00
6:13 PM,87.8,60.8,40,29.88,10.0,South,15.0,24.2,N/A,,Mostly Cloudy,180,2013-06-20 23:13:00
6:34 PM,87.8,60.8,40,29.88,10.0,SSE,18.4,23.0,N/A,,Scattered Clouds,160,2013-06-20 23:34:00
6:54 PM,87.8,60.8,40,29.88,10.0,South,19.6,24.2,N/A,,Clear,170,2013-06-20 23:54:00
7:13 PM,87.8,60.8,40,29.88,10.0,SSE,20.7,28.8,N/A,,Scattered Clouds,160,2013-06-21 00:13:00
7:34 PM,86.0,62.6,45,29.89,10.0,South,18.4,24.2,N/A,,Scattered Clouds,180,2013-06-21 00:34:00
7:54 PM,86.0,62.6,45,29.89,10.0,South,13.8,24.2,N/A,,Scattered Clouds,170,2013-06-21 00:54:00
8:14 PM,84.2,62.6,48,29.89,10.0,SSE,15.0,-,N/A,,Scattered Clouds,160,2013-06-21 01:14:00
8:34 PM,82.4,62.6,51,29.89,10.0,SSE,12.7,-,N/A,,Scattered Clouds,150,2013-06-21 01:34:00
8:54 PM,82.4,62.6,51,29.89,10.0,SSE,15.0,20.7,N/A,,Scattered Clouds,150,2013-06-21 01:54:00
9:14 PM,82.4,62.6,51,29.88,10.0,SSE,13.8,-,N/A,,Mostly Cloudy,150,2013-06-21 02:14:00
9:34 PM,82.4,62.6,51,29.88,10.0,SSE,13.8,-,N/A,,Mostly Cloudy,150,2013-06-21 02:34:00
9:54 PM,80.6,62.6,54,29.89,10.0,SSE,13.8,18.4,N/A,,Scattered Clouds,160,2013-06-21 02:54:00
10:14 PM,80.6,62.6,54,29.89,10.0,SSE,13.8,-,N/A,,Clear,160,2013-06-21 03:14:00
10:34 PM,80.6,62.6,54,29.89,10.0,SSE,19.6,29.9,N/A,,Clear,160,2013-06-21 03:34:00
10:54 PM,80.6,62.6,54,29.89,10.0,SSE,17.3,24.2,N/A,,Clear,160,2013-06-21 03:54:00
11:14 PM,78.8,62.6,57,29.90,10.0,SSE,15.0,-,N/A,,Scattered Clouds,150,2013-06-21 04:14:00
11:34 PM,78.8,62.6,57,29.89,10.0,SSE,13.8,20.7,N/A,,Scattered Clouds,160,2013-06-21 04:34:00
11:54 PM,78.8,62.6,57,29.89,10.0,SSE,13.8,23.0,N/A,,Scattered Clouds,160,2013-06-21 04:54:00